Skip Page Navigation
NASA JPL Caltech
NASA Logo - Jet Propulsion Laboratory + View the NASA Portal
+ Near-Earth Object (NEO) Program
Search JPL
JPL Home Earth Solar System Stars & Galaxies Technology
JPL Solar System Dynamics
BODIES ORBITS EPHEMERIDES TOOLS PHYSICAL DATA DISCOVERY FAQ SITE MAP
JPL Small-Body Database Browser
Search: [ help ]  
(2012 HG31)
Classification: Amor [NEO, PHA]          SPK-ID: 3603124
Ephemeris | Orbit Diagram | Orbital Elements | Physical Parameters | Close-Approach Data ]

[ hide orbit diagram ]
Orbit Diagram
Note: Make sure you have Java enabled on your browser to see the applet. This applet is provided as a 3D orbit visualization tool. The applet was implemented using 2-body methods, and hence should not be used for determining accurate long-term trajectories (over several years or decades) or planetary encounter circumstances. For accurate long-term ephemerides, please instead use our Horizons system.
Orbit Viewer

Additional Notes: the orbits shown in the applet are color coded. The planets are white lines, and the asteroid/comet is a blue line. The bright white line indicates the portion of the orbit that is above the ecliptic plane, and the darker portion is below the ecliptic plane. Likewise for the asteroid/comet orbit, the light blue indicates the portion above the ecliptic plane, and the dark blue the portion below the ecliptic plane.

Orbit Viewer applet originally written and kindly provided by Osamu Ajiki (AstroArts), and further modified by Ron Baalke (JPL).


Orbital Elements at Epoch 2456400.5 (2013-Apr-18.0) TDB
Reference: JPL 87 (heliocentric ecliptic J2000)
 Element Value Uncertainty (1-sigma)   Units 
e .5306285337621119 3.6199e-06  
a 2.175324106682099 1.6919e-05 AU
q 1.021035065496001 9.9086e-08 AU
i 10.21445749610339 4.0181e-05 deg
node 148.3686552991493 3.3463e-05 deg
peri 173.0264512618444 3.0534e-05 deg
M 73.94972344164182 0.00086475 deg
tp 2456159.776527679266
(2012-Aug-20.27652768)
2.8109e-05 JED
period 1171.883355369858
3.21
0.013672
3.743e-05
d
yr
n .3071978097055407 3.5839e-06 deg/d
Q 3.329613147868196 2.5896e-05 AU
  Orbit Determination Parameters
   # obs. used (total)      513  
   data-arc span      228 days  
   first obs. used      2012-04-15  
   last obs. used      2012-11-29  
   planetary ephem.      DE405  
   SB-pert. ephem.      SB405-CPV-2  
   condition code      3  
   fit RMS      .31423  
   data source      ORB  
   producer      Otto Matic  
   solution date      2013-Jan-04 00:56:23  

Additional Information
 Earth MOID = .0118707 AU 
 T_jup = 3.471 
[ show covariance matrix ]

Ephemeris | Orbit Diagram | Orbital Elements | Physical Parameters | Close-Approach Data ]

Physical Parameter Table
Parameter Symbol Value Units Sigma Reference Notes
absolute magnitude H 18.872 mag .3649 87 autocmod 2.5b

[ show close-approach data ]
Ephemeris | Orbit Diagram | Orbital Elements | Physical Parameters | Close-Approach Data ]
ABOUT SSD CREDITS/AWARDS PRIVACY/COPYRIGHT GLOSSARY LINKS
FirstGov 2013-May-25 14:04 UT
(server date/time)  
NASA Home Page
Site Manager:   Donald K. Yeomans
Webmaster  Alan B. Chamberlin